www.pogodaiklimat.ru

Погода и климат >> Архив погоды >> Россия >> Хакасия >> Бея


ПОГОДА в Бее

  • Прогноз погоды в Бее
  • Монитор погоды в Бее

АРХИВ ПОГОДЫ в Бее

Время (UTC), дата Ветер
(напр.,м/с)
 
Видим.   Явления Облачность Т
(С)
Тd
(С)
f
(%)
Тe
(С)
Тes
(С)
Комфортность P
(гПа)
Po
(гПа)
Тmin
(С)
Tmax
(С)
R
(мм)
R24
(мм)
S
(см)
18 11.09 З 4-11
{12}
н/о 10/4 600 м
[Cb cap Ac und]
+9.0 +4.3 72 +6 +6 1018.1 962.4
21 11.09 З 4
{11}
н/о 10/4 600 м
[Cb cap Ac und]
+8.1 +3.2 71 +5 +5 1021.3 965.3
00 12.09 З 3
{11}
20 км 10/4 600 м
[Cb cap Ac As Ci fib]
+7.2 +2.1 70 +5 +5 1021.8 965.5 +6.9
03 12.09 З 5-12
{13}
20 км 10/3 600 м
[Cb cap Ac As Ci fib]
+8.6 +2.6 66 +5 +6 1022.5 966.5
06 12.09 З 5-12
{13}
20 км 10/5 600 м
[Cb cap Ac As Ci fib]
+11.2 +2.8 56 +9 +10 1022.0 966.5
09 12.09 З 3
{13}
20 км {ливн. осадки} 10/5 600 м
[Cb cap Ac und]
+9.7 +3.5 65 +8 +8 1022.6 966.8
12 12.09 З 3
{11}
20 км в посл. час ливневой дождь 10/8 600 м
[Cb cap Ac und]
+8.0 +2.7 69 +6 +6 1023.7 967.5 +12.3 0.0
15 12.09 ЮЗ 2
{10}
н/о слаб. ливневой дождь 10/8 600 м
[Cb cap Ac und]
+6.3 +2.6 77 +4 +4 1024.7 968.1
18 12.09 З 3 н/о {ливн. осадки} 10/5 600 м
[Cb cap Ac und]
+7.0 +2.0 70 +4 +4 1022.9 966.6
21 12.09 З 3 н/о 10/5 600 м
[Cb cap Ac und]
+7.1 +0.8 64 +4 +4 1021.6 965.4
00 13.09 ЮЗ 1 20 км 10/5 600 м
[Cb cap Ac und]
+6.8 +0.7 65 +6 +6 1020.4 964.1 +6.2 0.5
03 13.09 ЮЗ 4
{10}
50 км 10/4 600 м
[Cb cap Ac As Ci fib]
+8.6 +0.8 58 +6 +6 1019.9 964.0
06 13.09 З 3-10
{10}
50 км 10/5 600 м
[Cb cap Ac und]
+10.7 +1.2 52 +9 +10 1016.7 961.4
09 13.09 З 4-11
{11}
50 км 10/6 600 м
[Cb cap Ac As Ci fib]
+12.0 +0.5 45 +10 +11 1014.8 959.9
12 13.09 З 4-11
{12}
20 км 10/5 600 м
[Cb cap Ac As Ci fib]
+11.6 +1.3 49 +10 +10 1014.4 959.4 +12.2
15 13.09 ЮЗ 5-13
{15}
н/о слаб. ливневой дождь 10/8 600 м
[Cb cap Ac und]
+9.1 +4.1 71 +6 +6 1015.4 959.9
18 13.09 З 3
{14}
н/о слаб. ливневой дождь 10/8 600 м
[Cb cap Ac und]
+7.5 +5.2 85 +5 +5 1016.6 960.7
21 13.09 З 3 н/о слаб. ливневой дождь 10/8 600 м
[Cb cap Ac und]
+7.1 +5.9 92 +4 +4 1018.7 962.7
00 14.09 СВ 2 10 км в посл. час ливневой дождь 10/8 600 м
[Cb cap Ac und]
+4.2 +4.2 100 +1 +1 1020.6 963.9 +4.2 9
03 14.09 СВ 2 10 км 10/5 600 м
[Cb cap Ac und Ci fib]
+6.0 +4.5 90 +4 +4 1023.2 966.7 +3.9
06 14.09 Ю 1 20 км 10/3 600 м
[Cb cap Ac As Ci fib]
+10.2 +5.0 70 +10 +10 1020.9 965.3
09 14.09 З 2 2000 м 10/5 600 м
[Cb cap Ac und]
+11.4 +7.7 78 +10 +10 1020.6 965.3
12 14.09 З 2 20 км 10/5 600 м
[Cb cap Ac und]
+10.1 +8.4 89 +9 +9 1019.4 963.9 +11.8
15 14.09 З 2 н/о 10/5 600 м
[Cb cap Ac und]
+11.3 +6.2 71 +10 +10 1020.6 965.3
18 14.09 З 3 н/о 10/1 1000 м
[Sc Ac As Ci fib]
+10.6 +6.4 75 +9 +9 1019.4 964.0
21 14.09 штиль 0 н/о 10/0 2000 м
[Ac As Ci fib]
+6.7 +5.0 89 +6 +6 1020.2 964.0
00 15.09 ЮЗ 2 20 км 10/5 600 м
[Cb cap Ac und]
+11.2 +6.0 70 +10 +10 1017.2 962.0 +6.5
03 15.09 З 2 20 км {ливн. осадки} 10/5 600 м
[Cb cap Ac und]
+12.1 +7.6 74 +11 +11 1017.7 962.7
06 15.09 З 4-12
{12}
20 км {ливн. осадки} 10/4 600 м
[Cb cap Ac und]
+14.3 +7.4 63 +13 +14 1016.5 961.9
09 15.09 З 2
{12}
20 км 10/4 600 м
[Cb cap Ac und]
+14.3 +7.6 64 +14 +14 1017.3 962.7
12 15.09 З 3 20 км 10/3 600 м
[Cb cap Ac As Ci fib]
+13.4 +7.6 68 +12 +12 1016.7 962.0 +15.3 1
15 15.09 З 2 н/о 10/3 600 м
[Cb cap Ac As Ci fib]
+12.3 +7.4 72 +11 +11 1019.0 964.0
18 15.09 З 2 н/о 9/3 600 м
[Cb cap Ac As Ci fib]
+12.3 +7.2 71 +11 +11 1019.0 964.0
21 15.09 З 2 н/о н/о +12.3 +7.6 73 +11 1019.0 964.0
00 16.09 ЮЗ 2 20 км сильн. ливневой дождь 10/10 600 м
[]
+11.2 +9.1 87 +10 +10 1020.2 964.9 +10.6 2
03 16.09 З 2 20 км 10 баллов +13.7 +9.7 77 +13 +13 1021.6 966.7
06 16.09 З 2 20 км {ливн. осадки} 10/5 600 м
[Cb cap Ac As Ci fib]
+17.1 +7.4 53 +17 +17 1021.0 966.7
09 16.09 ЮЗ 1 20 км 10 баллов +18.0 +7.7 51 +19 +19 1020.8 966.7
12 16.09 ЮВ 1 20 км 3/0
[Ci fib]
+14.7 +8.4 66 +15 +15 1019.7 965.1 +20.6 0.0
15 16.09 Ю 2 н/о 2 балла +7.2 +6.1 93 +5 +5 1022.9 966.7
18 16.09 штиль 0 н/о ясно +5.1 +4.7 97 +4 +4 1021.9 965.3
21 16.09 штиль 0 н/о ясно +5.7 +5.7 100 +4 +4 1021.8 965.3
00 17.09 ЮЗ 1 2000 м дымка 10/0
[Ci fib]
+7.3 +7.3 100 +6 +6 1020.1 964.0 +3.2
03 17.09 З 1 1000 м дымка 10 баллов +8.1 +8.1 100 +7 +7 1021.2 965.3
06 17.09 З 1 10 км 10 баллов +10.7 +9.0 89 +10 +10 1020.7 965.3
12 17.09 ЮЗ 2 50 км 10/3 600 м
[Cb cap Ac As Ci fib]
+16.9 +8.9 59 +17 +17 1017.5 963.4 +20.1 0.0
15 17.09 ЮЗ 2 н/о 10 баллов +14.8 +7.8 63 +15 +15 1019.9 965.3
18 17.09 ЮЗ 1 н/о 10 баллов +13.7 +6.8 63 +14 +14 1021.6 966.7
21 17.09 ЮЗ 2 н/о 10 баллов +12.9 +6.7 66 +12 +12 1021.8 966.7
00 18.09 З 3 20 км 10/4 600 м
[Cb cap Ac und]
+13.9 +6.7 62 +13 +13 1021.3 966.4 +12.9
03 18.09 З 2 20 км 10 баллов +14.6 +7.9 64 +14 +14 1024.2 969.3
06 18.09 З 2 20 км 10 баллов +15.4 +8.2 62 +15 +15 1022.6 968.0
09 18.09 З 3 20 км 10 баллов +16.1 +8.1 59 +16 +16 1022.5 968.0
12 18.09 З 1 20 км 10/3 600 м
[Cb cap Ac As Ci fib]
+15.5 +7.4 58 +16 +16 1021.3 966.7 +16.5

 

Местоположение метеостанции Бея (Хакасия, Россия): широта 53.05 долгота 90.92 высота над уровнем моря 468 м.

В архиве по умолчанию представлена погода в Бее за последнюю неделю. Архивные данные за месяц целиком и за предыдущие месяцы, начиная с января 2011 года, Вы можете получить, выбрав интересующий диапазон дат из раскрывающегося списка и нажав кнопку "Ввод!".


*Определитесь, кто Вы:
робот инопланетянин человек

Внимание! Время в таблицах - всемирное. Для получения местного времени необходимо прибавить поправку, которая равна 7 ч.

Смотрите также архив погоды в соседних городах и на ближайших метеорологических станциях:

Погода в Аскизе (Хакасия, Россия) (31 км)
Погода в Саяногорске (Хакасия, Россия) (35 км)
Погода в Карловом Створе (Хакасия, Россия) (39 км)
Погода в Черемушках (Хакасия, Россия) (39 км)
Погода в Таштыпе (Хакасия, Россия) (75 км)
Погода в Уйбате (Хакасия, Россия) (83 км)
Погода в Хакасской (Хакасия, Россия) (84 км)
Погода в Кантегире (Хакасия, Россия) (86 км)
Погода в Минусинске (Красноярский край, Россия) (91 км)
Погода в Ермаковском (Красноярский край, Россия) (104 км)

Пояснения к столбцам:

Ветер - указаны скорость ветра в м/с - средняя за 10 мин, порывы в срок и между сроками (в фигурных скобках) и направление, откуда дует ветер: С - северный, СВ - северо-восточный, В - восточный, ЮВ - юго-восточный, Ю - южный, ЮЗ - юго-западный, З - западный, СЗ - северо-западный.
Видимость - горизонтальная дальность видимости в метрах или километрах. При видимости от 1 до 10 км при отсутствии осадков обычно наблюдается дымка, при ухудшении видимости до 1 км и менее - туман. В сухую погоду видимость может ухудшаться дымом, пылью или мглою.
Явления - указаны атмосферные явления, наблюдавшиеся в срок или в последний час перед сроком; фигурными скобками обозначены явления, наблюдавшиеся между сроками (за 1-3 часа до срока); квадратными скобками обозначены град или гололедные отложения с указанием их диаметра в мм.
Облачность - указаны через наклонную черту общая и нижняя облачность в баллах и высота нижней границы облаков в метрах; квадратными скобками обозначены формы облаков: Ci - перистые, Cs - перисто-слоистые, Cc - перисто-кучевые, Ac - высококучевые, As - высокослоистые, Sc - слоисто-кучевые, Ns - слоисто-дождевые, Cu - кучевые, Cb - кучево-дождевые. Подробнее классификацию облаков см. в Атласе облаков (PDF).
T - Температура воздуха - температура, измеренная на высоте 2 м над землей.
Td - Температура точки росы - температура, при понижении до которой содержащийся в воздухе водяной пар достигнет насыщения.
f - Относительная влажность воздуха - влажноcть воздуха, измеренная на высоте 2 м над землей.
Te - Эффективная температура - температура, которую ощущает одетый по сезону человек в тени. Характеристика душности погоды. При расчете учитывается влияние влажности воздуха и скорости ветра на теплоощущения человека.
Tes - Эффективная температура на солнце - температура, которую ощущает человек, с поправкой на солнечный нагрев. Характеристика знойности погоды. Зависит от высоты солнца над горизонтом, облачности и скорости ветра. Ночью, в пасмурную погоду, а также при ветре 12 м/с и более поправка равна нулю.
P - Атмосферное давление - приведенное к уровню моря атмосферное давление.
Po - Атмосферное давление - измеренное на уровне метеостанции атмосферное давление.
Tmin - Минимальная температура - минимум температуры воздуха на высоте 2 м над землей.
Tmax - Максимальная температура - максимум температуры воздуха на высоте 2 м над землей.
R - Количество осадков - Количество выпавших осадков за период времени, мм. При наведении курсора мыши на число - период времени, за который выпало указанное количество осадков.
R24 - Количество осадков - Количество выпавших осадков за 24 часа, мм.
S - Снежный покров - Высота снежного покрова, см. При наведении курсора мыши на число - состояние снежного покрова и степень покрытия местности в баллах.